Location: Sweet Grass
(48.9965°N, 111.9649°W)
Time: 06:53:04
(UTC+00:00)

VELOX 1 - Visible Passes

Search period start: 01 April 2023 00:00
Search period end: 11 April 2023 00:00
Orbit: 618 x 633 km, 98.4° (Epoch: 31 March)

Date Brightness Start Highest point End Pass type
(mag) Time Alt. Az. Time Alt. Az. Time Alt. Az.
01 Apr ? 02:22:00 10° N 02:26:19 67° WNW 02:30:35 10° SSW visible
01 Apr ? 11:46:01 10° ESE 11:49:25 23° ENE 11:52:50 10° N visible
02 Apr ? 02:41:03 10° N 02:45:10 44° WNW 02:49:15 10° SW visible
02 Apr ? 12:04:18 10° SE 12:08:11 32° ENE 12:12:03 10° N visible
03 Apr ? 03:00:10 10° N 03:03:57 30° WNW 03:07:43 10° SW visible
03 Apr ? 12:22:47 10° SE 12:26:58 48° ENE 12:31:09 10° N visible
04 Apr ? 03:19:25 10° NNW 03:22:41 21° WNW 03:25:55 10° WSW visible
04 Apr ? 11:09:21 10° ENE 11:10:25 11° NE 11:11:28 10° NE visible
05 Apr ? 03:38:53 10° NNW 03:41:20 15° WNW 03:43:47 10° W visible
05 Apr ? 11:26:30 10° E 11:29:02 15° ENE 11:31:33 10° NNE visible
06 Apr ? 03:59:05 10° NW 03:59:56 11° NW 04:00:48 10° WNW visible
06 Apr ? 11:44:22 10° ESE 11:47:40 22° ENE 11:50:59 10° NNE visible
07 Apr ? 02:39:12 10° N 02:43:21 47° WNW 02:47:30 10° SW visible
07 Apr ? 12:02:33 10° SE 12:06:22 30° ENE 12:10:10 10° N visible
08 Apr ? 02:58:14 10° N 03:02:05 32° WNW 03:05:55 10° SW visible
09 Apr ? 03:17:23 10° N 03:20:45 22° WNW 03:24:06 10° WSW visible
09 Apr ? 11:08:10 10° ENE 11:08:29 10° NE 11:08:48 10° NE visible
10 Apr ? 03:36:44 10° NNW 03:39:21 16° WNW 03:41:59 10° W visible
10 Apr ? 11:24:41 10° E 11:27:02 14° ENE 11:29:22 10° NNE visible
